CZ-6A DEB, 61474

Orbit data source: Space-Track

CZ-6A DEB, 61474 is space debris in LEO originally from a launch on Tue, 06 Aug 2024 UTC launched from the Taiyaun Space Center, China (TSC). Debris objects in space refer to the collection of defunct objects orbiting the Earth. Examples of debris include non-operational satellites, rocket bodies, and fragments generated from explosions, collisions, or faulty payload assembly.

Loading next visibility...
Identifier
61474, 2024-140AAG
Orbit
LEO
Country
Flag of CNCN / PRC
Related business
Manufacturer
SAST
Mission
Spacecraft
Bus & Motor
Unknown
Mass
Unknown
Launch date (UTC)
2024-08-06 (2 years ago)
Launch vehicle
Unknown
Launch site
Taiyaun Space Center, China (TSC)
Object type
Payload
Rocket body
Debris
Shape & HBR
Unknown shape, 0.1 m
Radar Cross Section
Small (<0.1 m²)

Expand to show TLE details & history
Last TLE update: 11 hours ago

TLE from 11 hours ago
0 CZ-6A DEB
1 61474U 24140AAG 26118.67079992  .00004844  00000-0  11466-2 0  9990
2 61474  88.8165 263.1619 0123674 135.8924 225.2229 14.49318030 86947
Epoch: 2026-04-28T16:05Z
TLE epoch observation values (Epoch: 2026-04-28T16:05:57.113Z)
Latitude
0.00005°
Longitude
165.03116°
Altitude
793.427 km
Speed
7.424 km/s
True Right ascension
17h 32m 38s
True Declination
0° 00' 00"
Sunlit
Object was in full shadow at epoch
Visualization orbit readout
Latitude
Unknown
Longitude
Unknown
Altitude
Unknown
Speed
Unknown
Apparent Right ascension
Unknown
Apparent Declination
Unknown
Sunlit
N/A
Visualization observer readout
Local Sidereal Time
10:06:50
Azimuth
Unknown
Elevation
Unknown
Doppler factor
Unknown
Orbital elements
Apogee altitude
812.631 km
Perigee altitude
636.942 km
Semi-major axis
7,102.924 km
Eccentricity
0.01237
Inclination
88.8165°
RAAN
263.1619°
Arg. of periapsis
135.8924°
True anomaly
224.22779°
Mean anomaly
225.2229°
Eccentric anomaly
224.72426°
Mean motion
3.62566 °/min
Orbital period
99.29 mins
BSTAR
0.0011466
Loading maneuver chart data...
Computing Atmospheric mass density...
Loading historical data...
Loading historical data...
Loading historical data...
Loading historical data...
Loading historical data...
Loading historical data...
Loading historical data...

Documentation

Showing up to 5 results
|